Hourly Data Report for January 20, 2017

All times are specified in Local Standard Time (LST). Add 1 hour to adjust for Daylight Saving Time where and when it is observed.

WINNIPEG A CS
MANITOBA

49°55'00.000" N
97°14'58.000" W
238.70 m
502S001
71849
XWG

Download Data

Hourly Data (January 2017)
Hourly Data Report for January 20, 2017
Temp Definition
°C
Dew Point Temp Definition
°C
Rel Hum Definition
%
Wind Dir Definition
10's deg

Wind Spd Definition
km/h
Visibility Definition
km
Stn Press Definition
kPa
Hmdx Definition


Wind Chill Definition


Weather Definition


TIME
00:00 -1.3 -1.5 99 18 27   97.11   -8 LegendNANA
01:00 -0.9 -1.3 97 18 30   97.09   -8 LegendNANA
02:00 -0.6 -1.1 97 18 24   97.11   -7 LegendNANA
03:00 -0.2 -0.6 97 18 29   97.12   -7 LegendNANA
04:00 0.5 0.1 98 18 26   97.12     LegendNANA
05:00 1.1 0.6 97 18 26   97.10     LegendNANA
06:00 1.1 0.6 97 18 21   97.11     LegendNANA
07:00 1.1 0.8 98 18 21   97.09     LegendNANA
08:00 1.2 0.9 98 17 19   97.10     LegendNANA
09:00 1.2 1.0 98 17 19   97.10     LegendNANA
10:00 1.6 1.4 99 16 20   97.13     LegendNANA
11:00 1.6 1.4 99 16 20   97.13     LegendNANA
12:00 1.7 1.5 99 17 17   97.08     LegendNANA
13:00 2.0 1.8 99 16 17   97.00     LegendNANA
14:00 2.2 1.9 98 16 19   97.01     LegendNANA
15:00 1.8 1.5 98 14 18   97.04     LegendNANA
16:00 1.6 1.4 99 15 14   97.03     LegendNANA
17:00 1.9 1.8 99 13 15   97.03     LegendNANA
18:00 1.8 1.7 99 13 15   97.02     LegendNANA
19:00 1.9 1.7 99 12 17   97.02     LegendNANA
20:00 1.9 1.6 98 12 18   96.98     LegendNANA
21:00 1.6 1.3 98 14 16   96.99     LegendNANA
22:00 1.4 1.1 98 14 14   96.97     LegendNANA
23:00 1.3 1.0 98 14 13   96.97     LegendNANA

Notes on Data Quality.

Legend

  • E = Estimated
  • M = Missing
  • NA = Not Available
  • ‡ = Partner data that is not subject to review by the National Climate Archives
Date modified: